This is the latest recevied weather packets stored in our database for station/object KC1TEM-13. If no packets are shown the sender has not sent any weather packets the latest 10 day(s).
| Time | Temp. | Humidity | Pressure | Rain* | Wind** | Luminosity | Snow |
|---|---|---|---|---|---|---|---|
| 1777420206 | 7.78° C | 67% | 1021.1 hPa | 0 mm | - | 1 W/m² | - |
| 1777419902 | 7.78° C | 66% | 1021.1 hPa | 0 mm | - | 1 W/m² | - |
| 1777419599 | 7.78° C | 66% | 1021.3 hPa | 0 mm | - | 2 W/m² | - |
| 1777419298 | 7.78° C | 65% | 1021.5 hPa | 0 mm | - | 4 W/m² | - |
| 1777418996 | 7.78° C | 64% | 1021.4 hPa | 0 mm | - | 5 W/m² | - |
| 1777418696 | 7.78° C | 63% | 1021.3 hPa | 0 mm | - | 7 W/m² | - |
| 1777418393 | 7.78° C | 63% | 1021.5 hPa | 0 mm | - | 10 W/m² | - |
| 1777418089 | 7.78° C | 61% | 1021.4 hPa | 0 mm | - | 13 W/m² | - |
| 1777417785 | 8.33° C | 60% | 1021.5 hPa | 0 mm | - | 16 W/m² | - |
| 1777417481 | 8.33° C | 58% | 1021.6 hPa | 0 mm | - | 19 W/m² | - |
| 1777417177 | 8.33° C | 56% | 1021.5 hPa | 0 mm | - | 24 W/m² | - |
| 1777416873 | 8.33° C | 53% | 1021.5 hPa | 0 mm | - | 31 W/m² | - |
| 1777416569 | 8.89° C | 52% | 1021.7 hPa | 0 mm | - | 38 W/m² | - |
| 1777416265 | 8.89° C | 49% | 1021.9 hPa | 0 mm | - | 46 W/m² | - |
| 1777415964 | 8.89° C | 46% | 1022 hPa | 0 mm | - | 53 W/m² | - |
| 1777415661 | 8.89° C | 44% | 1021.7 hPa | 0 mm | - | 58 W/m² | - |
| 1777415356 | 9.44° C | 41% | 1021.9 hPa | 0 mm | - | 61 W/m² | - |
| 1777415051 | 9.44° C | 37% | 1022 hPa | 0 mm | - | 63 W/m² | - |
| 1777414750 | 9.44° C | 35% | 1021.9 hPa | 0 mm | - | 64 W/m² | - |
| 1777414447 | 10° C | 34% | 1022.2 hPa | 0 mm | - | 67 W/m² | - |
| 1777414145 | 10° C | 33% | 1022.2 hPa | 0 mm | - | 68 W/m² | - |
| 1777413841 | 10° C | 34% | 1022.2 hPa | 0 mm | - | 67 W/m² | - |
| 1777413537 | 10° C | 31% | 1022.2 hPa | 0 mm | - | 63 W/m² | - |
| 1777413233 | 10° C | 30% | 1022 hPa | 0 mm | - | 61 W/m² | - |
| 1777412929 | 10.56° C | 28% | 1021.9 hPa | 0 mm | - | 61 W/m² | - |
* Rain latest hour (hover to see other rain measurements)
** Current wind speed in m/s (hover to see current wind gust speed)